Probability
5 5 6 5 3 1 0 0 0 0 0 0 0 0 0 0 0 0 0 0 0 1 2 2 3 3 4 5 6 6 6 5 2 1 1 1 1 1 1 1 0 0 0
2 3 5 5 3 1 0 0 0 0 0 0 0 0 0 0 0 0 0 0 0 0 1 1 2 4 4 3 5 7 8 8 6 5 4 3 2 2 2 2 1 0 0
0 1 4 5 3 1 0 0 0 0 0 0 0 0 0 0 0 0 0 0 0 0 0 0 1 3 3 2 2 5 9 12 11 9 7 4 3 3 3 3 2 1 0
0 1 3 4 2 0 0 0 0 0 0 0 0 0 0 0 0 0 0 0 0 0 0 0 1 2 2 2 2 2 6 11 13 11 8 5 4 4 3 3 2 1 0
1 2 3 3 1 0 0 0 0 0 0 0 0 0 0 0 0 0 0 0 0 0 0 0 0 1 2 3 3 2 3 7 11 11 8 6 5 5 4 3 2 1 0
3 3 3 2 1 0 0 0 0 0 0 0 0 0 0 0 0 0 0 0 0 0 0 0 0 0 1 2 2 2 1 3 7 9 9 7 6 5 4 3 2 1 0
3 3 3 3 1 0 0 0 0 0 0 0 0 0 0 0 0 0 0 0 0 0 0 0 0 0 0 1 1 1 0 1 3 5 7 8 6 5 4 4 3 1 0
3 3 3 3 2 1 0 0 0 0 0 0 0 0 0 0 0 0 0 0 0 0 0 0 0 0 0 0 0 0 0 0 0 2 4 5 5 4 4 5 4 1 0
3 3 3 3 2 1 0 0 0 0 0 0 0 0 0 0 0 0 0 0 0 0 0 0 0 0 0 0 0 0 0 0 0 0 1 2 1 2 3 4 4 2 1
3 3 3 3 3 1 0 0 0 0 0 0 0 0 0 0 0 0 0 0 0 0 0 0 0 0 0 0 0 0 0 0 0 1 1 1 0 1 3 3 2 1 1
3 3 3 3 3 2 1 0 0 0 0 0 0 0 0 0 0 0 0 0 0 0 0 0 0 0 0 0 0 0 0 0 0 1 2 1 1 2 3 2 1 1 1
1 2 2 3 3 2 1 0 0 0 0 0 0 0 0 0 0 0 0 0 0 0 0 0 0 0 0 0 0 0 0 0 0 0 1 1 1 2 2 1 2 2 2
0 1 1 1 2 1 0 0 0 0 0 0 0 0 0 0 0 0 0 0 0 0 0 0 0 0 0 0 0 0 0 0 0 0 0 0 0 0 0 0 1 2 2
0 0 0 0 0 0 0 0 0 0 0 0 0 0 0 0 0 0 0 0 0 0 0 0 0 0 0 0 0 0 0 0 0 0 0 0 0 0 0 0 0 1 1
0 0 0 0 0 0 0 0 0 0 0 0 0 0 0 0 0 0 0 0 0 0 0 0 0 0 0 0 0 0 0 0 0 0 0 0 0 0 0 0 0 0 0
0 0 0 0 0 0 0 0 0 0 0 0 0 0 0 0 0 0 0 0 0 0 0 0 0 0 0 0 0 0 0 0 0 0 0 0 0 0 0 0 0 0 0
0 0 0 0 0 0 0 0 0 0 0 0 0 0 0 0 0 0 0 0 0 0 0 0 0 0 0 0 0 0 0 0 0 0 0 0 0 0 0 0 0 0 0
0 0 0 0 0 0 0 0 0 0 0 0 0 0 0 0 0 0 0 0 0 0 0 0 0 0 0 0 0 0 0 0 0 0 0 0 0 0 0 0 0 0 0
0 0 0 0 0 0 0 0 0 0 0 0 0 0 0 0 0 0 0 0 0 0 0 0 0 0 0 0 0 0 0 0 0 0 0 0 0 0 0 0 0 0 0
0 0 0 0 0 0 0 0 0 0 0 0 0 0 0 0 0 0 0 0 0 0 0 0 0 0 0 0 0 0 0 0 0 0 0 0 0 0 0 0 0 0 0
0 0 0 0 0 0 0 0 0 0 0 0 0 0 0 0 0 0 0 0 0 0 0 0 0 0 0 0 0 0 0 0 0 0 0 0 0 0 0 0 0 0 0
0 0 0 0 0 0 0 0 0 0 0 0 0 0 0 0 0 0 0 0 0 0 0 0 0 0 0 0 0 0 0 0 0 0 0 0 0 0 0 0 0 0 0
0 0 0 0 0 0 0 0 0 0 0 0 0 0 0 0 0 0 0 0 0 0 0 0 0 0 0 0 0 0 0 0 0 0 0 0 0 0 0 0 0 0 0
0 0 0 0 0 0 0 0 0 0 0 0 0 0 0 0 0 0 0 0 0 0 0 0 0 0 0 0 0 0 0 0 0 0 0 0 0 0 0 0 0 0 0
0 0 0 0 0 0 0 0 0 0 0 0 0 0 0 0 0 0 0 0 0 0 0 0 0 0 0 0 0 0 0 0 0 0 0 0 0 0 0 0 0 0 0
0 0 0 0 0 0 0 0 0 0 0 0 0 0 0 0 0 0 0 0 0 0 0 0 0 0 0 0 0 0 0 0 0 0 0 0 0 0 0 0 0 0 0
Wind_Speed
0 0 1 1 1 1 1 2 2 2 3 3 3 3 3 4 4 3 3 7 9 10 11 12 12 12 11 11 11 10 10 9 9 8 7 7 7 7 7 7 8 7 7
0 0 1 1 1 1 1 2 2 2 2 2 2 3 3 3 3 3 3 4 8 9 11 13 13 12 11 11 11 10 10 9 8 7 7 6 6 6 6 6 6 6 7
0 0 0 1 1 2 2 1 2 1 1 1 2 2 2 2 2 3 3 3 4 6 9 11 12 11 11 11 11 10 9 9 8 8 8 7 6 6 6 6 6 6 7
1 0 0 1 1 1 1 1 1 1 1 1 2 2 2 2 3 3 3 3 2 3 4 7 8 8 9 10 10 10 10 8 8 8 7 7 6 6 7 7 7 7 8
2 1 1 1 1 1 1 2 1 1 1 2 2 2 2 2 3 3 3 3 3 3 2 4 5 6 7 8 9 9 8 7 7 7 7 7 7 7 8 8 8 8 9
2 2 1 2 1 1 1 1 2 1 1 2 2 2 2 2 2 2 3 2 2 2 2 2 2 2 3 4 5 6 6 6 6 6 7 7 7 8 8 9 9 9 9
2 2 2 2 2 1 1 1 1 2 1 1 0 2 2 2 2 2 1 1 1 1 1 1 1 1 1 2 3 5 6 6 6 7 7 8 8 9 9 10 10 10 10
2 2 1 2 2 1 2 1 1 1 1 0 0 0 2 2 1 1 1 1 1 0 0 1 1 1 1 1 1 3 5 6 7 8 8 8 9 10 10 11 11 11 11
2 2 2 2 2 1 1 1 1 1 1 1 1 1 1 2 2 1 1 1 1 0 1 0 0 0 0 1 1 2 3 4 6 8 8 9 9 10 10 11 11 11 11
2 2 2 2 2 2 1 1 1 1 1 1 2 1 1 1 1 2 2 1 1 1 1 1 0 0 0 0 1 2 3 4 7 8 9 10 10 11 11 12 11 12 12
2 2 2 2 2 2 2 1 1 1 1 2 1 1 1 1 1 2 3 2 2 1 1 1 0 0 1 0 1 2 4 5 7 8 9 10 10 11 11 12 12 12 12
2 2 2 2 2 2 2 2 2 2 2 2 2 1 1 1 2 2 3 2 3 2 1 1 1 1 0 0 1 3 4 5 6 8 9 10 10 10 11 12 12 12 12
2 3 2 2 2 2 2 2 2 2 2 2 2 2 2 2 1 2 2 2 2 2 1 1 1 1 0 0 1 2 3 5 6 7 9 10 10 9 10 11 12 11 11
3 3 2 2 2 2 2 1 1 2 2 2 2 2 2 2 1 2 2 2 2 2 2 2 1 1 1 0 1 1 2 5 6 7 8 9 9 9 10 10 11 11 11
3 3 2 2 2 2 2 1 1 2 2 2 2 2 2 2 1 1 1 2 2 3 4 2 1 1 1 0 1 1 2 5 6 7 7 8 8 9 9 10 10 10 10
3 2 2 2 2 2 2 1 1 2 1 2 2 1 2 1 1 1 1 1 2 2 3 2 1 1 1 1 2 2 2 5 6 7 7 8 8 8 9 9 9 10 10
3 3 3 3 3 3 2 2 2 2 2 2 1 1 2 1 1 1 1 1 1 1 3 2 1 1 1 2 2 2 2 3 3 7 8 8 8 8 9 9 9 10 10
3 3 3 3 3 3 2 2 3 2 2 2 2 2 2 1 1 1 1 1 1 2 2 3 2 1 2 2 2 2 3 3 3 6 8 8 8 8 9 9 9 10 10
4 3 3 3 3 3 3 3 3 3 3 3 3 3 2 2 2 1 1 1 1 1 1 2 2 2 2 2 2 3 3 3 3 5 7 7 8 8 9 10 10 10 10
4 4 4 4 4 3 3 3 3 3 3 3 3 3 3 3 3 3 2 2 2 1 1 2 2 2 2 2 1 2 3 3 3 4 5 6 7 9 10 10 10 10 10
5 4 4 4 4 3 3 4 3 3 3 3 3 3 3 3 4 3 2 2 2 2 2 2 2 1 2 1 2 1 3 4 3 2 3 3 4 4 5 7 8 9 10
4 4 4 5 5 4 5 7 5 4 3 3 3 3 3 3 4 5 5 4 4 3 3 3 2 2 3 2 2 2 2 3 3 2 3 5 3 4 4 3 8 10 11
4 5 5 5 5 6 7 7 7 4 4 4 4 3 3 3 4 3 4 4 4 5 5 4 4 4 3 3 2 3 3 3 4 3 3 4 2 3 4 5 10 10 10
5 5 5 5 5 6 8 8 8 5 4 5 5 5 4 4 4 3 3 3 3 3 3 3 3 3 3 2 3 3 3 3 3 2 2 3 3 3 5 4 8 9 10
5 5 5 5 6 6 9 9 7 4 4 5 5 5 5 4 6 6 4 3 3 2 2 2 2 1 1 2 2 1 1 1 3 2 1 1 2 4 4 4 5 9 12
5 5 5 5 6 6 9 10 8 3 4 4 4 4 7 6 7 6 4 4 4 3 2 1 0 1 1 1 1 0 1 1 2 2 1 1 2 3 4 3 3 4 6
Wind_Direction
271 270 289 285 278 272 267 275 275 277 274 269 258 246 237 224 222 223 232 226 227 230 232 233 231 227 226 227 229 230 232 233 234 237 240 240 243 249 254 259 263 264 269
33 284 279 278 282 277 265 260 265 268 268 263 262 258 247 230 221 219 228 232 231 232 236 239 237 232 231 233 234 233 232 232 233 235 239 241 244 250 255 259 265 267 270
47 301 274 281 286 288 286 280 279 280 285 277 267 263 258 245 235 227 230 231 235 237 240 244 245 240 237 238 240 240 234 234 234 236 239 241 242 244 249 256 263 269 273
8 12 281 277 286 286 291 281 271 280 288 277 274 268 260 250 243 243 238 233 231 235 236 241 249 248 243 243 244 246 243 238 235 238 243 244 247 249 249 256 261 266 271
6 4 313 297 300 293 288 279 278 263 272 276 270 267 264 254 247 248 246 236 227 227 226 233 237 249 253 252 252 252 254 251 245 244 246 247 251 256 258 260 263 267 269
10 8 341 325 324 316 309 297 276 270 251 257 283 293 279 268 255 238 233 228 222 222 218 229 231 249 254 267 264 264 265 266 254 248 254 257 260 262 263 266 267 268 271
8 5 355 339 338 312 296 300 287 281 280 278 338 316 306 287 257 242 227 209 207 217 199 210 210 232 259 261 271 275 276 274 270 262 259 260 263 265 267 268 267 269 271
354 348 343 329 321 307 317 322 314 291 279 258 162 297 302 312 298 279 262 231 232 229 219 241 217 235 240 231 279 275 279 280 282 282 277 271 269 269 269 269 269 271 274
351 339 327 319 311 295 288 289 280 266 272 281 259 192 210 248 296 299 276 249 223 259 288 305 120 319 262 241 267 283 288 293 291 291 290 285 279 276 276 274 273 274 276
346 339 324 320 318 308 294 283 293 248 230 274 292 282 243 231 248 289 305 307 279 252 255 295 323 335 346 341 322 313 303 292 287 291 291 290 287 282 280 278 278 276 274
330 333 331 331 323 310 297 288 282 268 238 240 252 276 280 285 249 242 274 295 307 282 261 256 230 244 281 324 316 309 306 299 294 296 299 300 298 292 286 287 286 284 282
313 323 323 319 312 310 301 288 277 275 264 248 249 238 228 235 246 242 256 271 279 286 287 262 226 232 253 307 319 328 312 309 307 305 303 303 307 309 300 294 294 295 294
296 302 314 306 306 301 296 292 288 287 270 247 238 240 240 243 240 237 246 259 268 284 292 295 253 225 255 293 302 329 320 321 318 313 309 311 314 314 312 306 304 305 304
269 276 286 288 292 297 304 311 302 289 279 262 254 244 247 254 251 230 223 226 260 274 269 266 280 259 274 251 317 320 305 314 314 315 315 319 322 318 315 310 307 305 305
267 269 270 278 282 284 283 280 282 285 285 273 261 253 247 260 263 262 250 219 217 249 260 257 262 288 282 267 318 291 296 307 310 312 317 320 320 318 316 313 311 309 307
257 265 269 274 275 271 268 262 270 276 277 278 271 263 257 262 262 268 267 267 243 234 254 254 252 295 298 315 318 307 293 309 310 314 319 317 316 315 315 314 312 309 308
248 250 254 260 263 262 257 247 251 263 263 276 283 266 271 274 271 278 271 258 252 230 246 274 296 304 299 306 319 316 307 298 305 311 314 314 314 314 314 314 312 311 310
242 240 241 248 257 258 249 236 241 243 239 250 260 257 273 271 262 276 261 251 250 238 228 255 282 290 280 282 297 305 313 312 304 314 316 316 315 315 316 314 314 313 314
241 239 230 238 249 250 247 244 238 239 234 235 240 240 250 245 250 253 251 252 257 264 243 234 263 272 279 294 306 308 313 313 312 317 318 317 315 318 318 316 315 315 314
235 236 232 235 240 239 238 242 242 242 238 236 239 237 235 228 235 235 241 246 244 246 245 243 257 269 279 284 292 302 312 315 307 317 318 315 318 323 321 319 318 317 314
234 234 232 236 237 231 229 229 231 234 238 247 249 243 239 236 232 226 229 229 224 228 230 240 254 268 275 281 278 275 293 306 299 304 310 306 311 310 314 315 316 315 315
238 233 230 230 234 236 232 228 223 226 229 238 248 252 250 245 244 240 240 235 219 217 220 223 238 245 259 261 265 277 291 314 302 304 309 298 294 293 299 299 310 316 318
236 236 234 230 234 236 234 235 227 220 224 231 236 240 250 249 244 243 251 257 250 237 224 212 223 236 240 238 242 259 263 266 268 285 298 284 285 286 294 305 314 317 322
234 235 235 233 236 239 233 234 230 222 226 232 231 227 232 241 233 226 229 242 246 247 236 217 217 233 237 238 233 243 253 269 271 274 266 277 301 295 304 302 310 319 325
239 235 231 229 233 241 234 233 227 216 227 237 235 228 224 230 238 232 225 230 242 256 264 225 217 231 288 298 285 257 281 297 297 295 310 277 300 309 302 294 303 318 322
238 239 239 232 230 236 236 232 223 212 226 236 237 235 229 229 238 232 221 220 233 238 224 218 247 320 324 322 331 207 227 253 282 285 302 313 300 328 311 293 299 311 315